User: anonymous   Login
Location: Cincinnati Observatory Center
(39.1389°N, 84.4225°W)
Time: 13:37:26
(UTC-04:00)
Language:

COSMOS 2428 - Orbit

View from above orbital plane
View from above orbital plane
View from above satellite
View from above satellite

Ground track
Ground track

The orbit data is extracted from the following two-line orbital elements,

1 31792U 07029A   17267.43249182  .00000347  00000-0  21415-3 0  9996
2 31792  70.9283 203.7814 0007318 146.8483 213.3098 14.12337713528082
Epoch (UTC): 24 September 2017 10:22:47
Eccentricity: 0.0007318
inclination: 70.9283°
perigee height: 846 km
apogee height: 856 km
right ascension of ascending node: 203.7814°
argument of perigee: 146.8483°
revolutions per day: 14.12337713
mean anomaly at epoch: 213.3098°
orbit number at epoch: 52808

The dashed part of the orbit path shows where the satellite is in the earth's shadow,  

DLR